My Profile
  1. Member Settings
  2. My Devices
  3. Sign Out
        More Settings
      Elev 19 ft, 16.973 °N 81.795 °E

      Navabharat Nagar, IN

      Summary

      Temperature (°F)MaxAverageMin
      Max Temperature9992.182
      Avg Temperature9086.580.34
      Min Temperature8280.6177
      Precipitation (in)MaxAverageMinSum
      Precipitation0000
      Dew Point (°F)MaxAverageMin
      Dew Point82.0378.7874.46
      Wind (mph)MaxAverageMin
      Wind2315.0610
      Gust Wind3524.9121
      Sea Level Pressure (in)MaxAverageMin
      Sea Level Pressure29.5829.4529.27

      Daily Observations

      DateTemp High/LowDew Pt High/LowHumidityWindMax WindWind GustPressurePrecip.Condition
      8/1/2022 93 °F / 81 °F 79 °F / 75 °F 71 % 12 mph - 29.45 in 0 in
      8/2/2022 97 °F / 82 °F 84 °F / 79 °F 80 % 12 mph - 29.41 in 0 in
      8/3/2022 97 °F / 81 °F 82 °F / 79 °F 77 % 10 mph - 29.42 in 0 in
      8/4/2022 95 °F / 82 °F 86 °F / 79 °F 85 % 16 mph - 29.42 in 0 in
      8/5/2022 90 °F / 81 °F 84 °F / 79 °F 90 % 14 mph - 29.4 in 0 in
      8/6/2022 86 °F / 81 °F 82 °F / 79 °F 92 % 15 mph - 29.36 in 0 in
      8/7/2022 84 °F / 79 °F 82 °F / 79 °F 97 % 16 mph - 29.3 in 0 in
      8/8/2022 86 °F / 79 °F 82 °F / 77 °F 92 % 20 mph - 29.27 in 0 in
      8/9/2022 84 °F / 79 °F 81 °F / 77 °F 94 % 23 mph - 29.31 in 0 in
      8/10/2022 90 °F / 81 °F 82 °F / 77 °F 82 % 15 mph - 29.33 in 0 in
      8/11/2022 91 °F / 81 °F 79 °F / 77 °F 74 % 14 mph - 29.41 in 0 in
      8/12/2022 93 °F / 82 °F 81 °F / 73 °F 68 % 17 mph - 29.45 in 0 in
      8/13/2022 93 °F / 82 °F 77 °F / 75 °F 69 % 17 mph - 29.43 in 0 in
      8/14/2022 82 °F / 77 °F 77 °F / 75 °F 89 % 17 mph - 29.46 in 0 in
      8/15/2022 90 °F / 79 °F 77 °F / 75 °F 73 % 14 mph - 29.53 in 0 in
      8/16/2022 93 °F / 81 °F 77 °F / 72 °F 66 % 15 mph - 29.56 in 0 in
      8/17/2022 93 °F / 81 °F 77 °F / 73 °F 69 % 14 mph - 29.54 in 0 in
      8/18/2022 88 °F / 79 °F 81 °F / 77 °F 85 % 10 mph - 29.53 in 0 in
      8/19/2022 90 °F / 82 °F 77 °F / 77 °F 77 % 14 mph - 29.47 in 0 in
      8/20/2022 91 °F / 81 °F 79 °F / 75 °F 74 % 17 mph - 29.43 in 0 in
      8/21/2022 95 °F / 82 °F 77 °F / 75 °F 67 % 17 mph - 29.42 in 0 in
      8/22/2022 95 °F / 82 °F 79 °F / 73 °F 67 % 17 mph - 29.42 in 0 in
      8/23/2022 99 °F / 82 °F 81 °F / 73 °F 69 % 16 mph - 29.46 in 0 in
      8/24/2022 91 °F / 81 °F 81 °F / 77 °F 81 % 13 mph - 29.54 in 0 in
      8/25/2022 97 °F / 79 °F 82 °F / 77 °F 73 % 12 mph - 29.5 in 0 in
      8/26/2022 99 °F / 79 °F 84 °F / 77 °F 75 % 13 mph - 29.47 in 0 in
      8/27/2022 99 °F / 79 °F 84 °F / 75 °F 78 % 23 mph - 29.46 in 0 in
      8/28/2022 93 °F / 81 °F 82 °F / 77 °F 81 % 12 mph - 29.48 in 0 in
      8/29/2022 93 °F / 81 °F 82 °F / 79 °F 81 % 14 mph - 29.56 in 0 in
      8/30/2022 95 °F / 81 °F 82 °F / 79 °F 81 % 13 mph - 29.58 in 0 in
      8/31/2022 93 °F / 81 °F 84 °F / 79 °F 87 % 15 mph - 29.56 in 0 in
      essentialaccessibility.com
      We recognize our responsibility to use data and technology for good. We may use or share your data with our data vendors. Take control of your data.
      Glossary